Regional Weather Roundup
Issued by NWS

Home | Current Version | Previous Version | Graphics & Text | Print | Product List | Glossary On
Versions: 1 2 3 4 5 6 7 8 9 10 11 12 13 14 15 16 17 18 19 20 21 22 23 24 25 26 27 28 29 30 31 32 33 34 35 36 37 38 39 40 41 42 43 44 45 46 47 48 49 50
000
ASUS43 KDMX 270101
RWRIA

WEATHER ROUNDUP FOR IOWA
NATIONAL WEATHER SERVICE DES MOINES IA
800 PM CDT WED APR 26 2017

NOTE: "FAIR" INDICATES FEW OR NO CLOUDS BELOW 12,000 FEET WITH NO
SIGNIFICANT WEATHER AND/OR OBSTRUCTIONS TO VISIBILITY.

* - THESE STATIONS ARE NOT NWS STATIONS...THUS NOT UNDER NWS
QUALITY CONTROL.  THEY ALSO DO NOT REPORT WEATHER SUCH
AS PRECIPITATION OR FOG.

IAZ001>003-012>014-020>022-031>034-043>046-270200-
   NORTHWEST IOWA

CITY           SKY/WX    TMP DP  RH WIND       PRES   REMARKS
CARROLL *      CLOUDY    41  36  81 NW18G24   29.62R
CHEROKEE *     CLOUDY    37  32  84 NW13G21   29.66R WCI  28
DENISON *      CLOUDY    39  34  81 NW15G22   29.66R WCI  31
LE MARS *      CLOUDY    37  30  75 NW14G22   29.67S WCI  29
ORANGE CITY *  CLOUDY    36  32  87 N12       29.65R WCI  27
SHELDON *      CLOUDY    34  30  86 NW16G23   29.64R WCI  23
SIOUX CITY     CLOUDY    40  31  70 NW22      29.66R WCI  30
SPENCER        CLOUDY    36  32  85 N14       29.64R WCI  27
STORM LAKE *   CLOUDY    36  32  87 NW17G23   29.63R WCI  25
$$

IAZ055>058-069>071-079>083-090>094-270200-
   SOUTHWEST IOWA

CITY           SKY/WX    TMP DP  RH WIND       PRES   REMARKS
ATLANTIC *     CLOUDY    41  34  75 N14G20    29.63F
AUDUBON *      CLOUDY    39  36  87 NW9       29.63S WCI  33
CLARINDA *     CLOUDY    43  34  70 N13G21    29.65F
COUNCIL BLFS * CLOUDY    41  34  75 NW13G22   29.64F
CRESTON *      CLOUDY    41  36  81 N16G22    29.61F
HARLAN  *      CLOUDY    41  36  81 NW12G20   29.67R
LAMONI         CLOUDY    43  37  79 NW15G23   29.58S
RED OAK *      CLOUDY    43  34  70 N14G21    29.64S
SHENANDOAH *   CLOUDY    43  34  70 NW14      29.66R
$$

IAZ047>049-059>061-072>074-084-270200-
   CENTRAL IOWA

CITY           SKY/WX    TMP DP  RH WIND       PRES   REMARKS
AMES           CLOUDY    43  38  82 N15       29.60R
ANKENY *       CLOUDY    45  37  76 NW15      29.60S
BOONE *        CLOUDY    41  37  87 NW12G18   29.60R
CHARITON *     CLOUDY    45  39  81 NW14G23   29.55F
DES MOINES     CLOUDY    45  37  73 NW15      29.59F
GRINNELL*      CLOUDY    44  38  79 NW18      29.57S
KNOXVILLE *    CLOUDY    46  37  71 NW14G23   29.54F
MARSHALLTOWN   CLOUDY    43  37  79 NW15      29.57R
NEWTON *       CLOUDY    45  37  76 NW14G22   29.56S
PELLA *        CLOUDY    46  39  77 NW15      29.56F
PERRY *        CLOUDY    42  36  78 NW14      29.62R
$$

IAZ004>006-015-016-023>025-035-036-270200-
   NORTH CENTRAL IOWA

CITY           SKY/WX    TMP DP  RH WIND       PRES   REMARKS
ALGONA *       CLOUDY    37  34  87 NW18      29.60S WCI  27
CLARION *      CLOUDY    39  39 100 NW18      29.60R WCI  30
ESTHERVILLE    CLOUDY    33  32  96 NW16      29.62S WCI  23
FORT DODGE *   CLOUDY    39  30  70 NW8       29.63R WCI  34
MASON CITY     CLOUDY    39  34  82 NW16      29.59R WCI  30
FOREST CITY *  CLOUDY    37  32  81 N12G17    29.58R WCI  30
WEBSTER CITY * MIX PCPN  39  36  87 NW17G24   29.59R WCI  30
IOWA FALLS *   CLOUDY    43  36  76 NW13G22   29.59R
$$

IAZ007>011-017>019-026>030-037>042-050>054-066-270200-
   NORTHEAST IOWA

CITY           SKY/WX    TMP DP  RH WIND       PRES   REMARKS
CEDAR RAPIDS   CLOUDY    46  41  82 NW14      29.53R
CHARLES CITY * CLOUDY    41  39  93 NW15      29.56R
CLINTON *      LGT RAIN  50  47  89 NW8       29.50F
DECORAH *      CLOUDY    41  37  87 NW8       29.52S
DUBUQUE        CLOUDY    47  42  83 NW13      29.49F
MONTICELLO *   CLOUDY    46  41  81 NW12      29.51S
OELWEIN *      CLOUDY    43  39  87 NW16      29.54F
WATERLOO       CLOUDY    43  38  82 NW14      29.55R
$$

IAZ064-065-067-068-078-270200-
   EAST CENTRAL IOWA

CITY           SKY/WX    TMP DP  RH WIND       PRES   REMARKS
DAVENPORT      LGT RAIN  49  46  90 NW8       29.50F
IOWA CITY      CLOUDY    50  41  71 NW9       29.53F
MUSCATINE *    CLOUDY    52  45  76 NW8       29.50F
QUAD CITIES    CLOUDY    51  46  83 NW7       29.50F
$$

IAZ062-063-075>077-085>089-095>099-270200-
   SOUTHEAST IOWA

CITY           SKY/WX    TMP DP  RH WIND       PRES   REMARKS
BURLINGTON     CLOUDY    49  47  93 N10       29.48F
FAIRFIELD *    CLOUDY    48  43  81 NW18      29.50F
FORT MADISON * CLOUDY    48  46  93 N7        29.49F
KEOKUK *       CLOUDY    48  46  93 NW6G12    29.49F
OSKALOOSA *    DRIZZLE   46  40  82 NW14      29.53F
CENTERVILLE *  CLOUDY    45  41  87 NW15      29.54F
OTTUMWA        LGT RAIN  47  42  83 N16       29.53S
WASHINGTON *   CLOUDY    48  45  87 NW13G20   29.51F
$$

ABBREVIATIONS USED IN REMARKS
   TC - TEMPERATURES IN CELSIUS
  WCI - WIND CHILL INDEX
   HX - HEAT INDEX
  VSB - VISIBILITY
$$





USA.gov is the U.S. government's official web portal to all federal, state and local government web resources and services.